Sharm El Sheikh, Egypt

4:13 PM EET on December 05, 2016 (GMT +0200)
Sharm El Sheikh

Weather History for 62460 - August, 2013

Change the Weather History Date:

Monday, August 19, 2013

  Actual Average Record
Temperature  
Mean Temperature 94 °F -  
Max Temperature 104 °F - - ()
Min Temperature 84 °F - - ()
Cooling Degree Days 29    
Growing Degree Days 44 (Base 50)    
Moisture  
Dew Point 59 °F    
Average Humidity 34    
Maximum Humidity 51    
Minimum Humidity 19    
Precipitation  
Precipitation 0.00 in - - ()
Sea Level Pressure  
Sea Level Pressure 29.61 in    
Wind  
Wind Speed 10 mph ()    
Max Wind Speed 15 mph    
Max Gust Speed -    
T = Trace of Precipitation, MM = Missing Value Source: Averaged Metar Reports

Daily Weather History Graph

Daily Weather History Graph

Search for Another Location

Airport or City:

Trip Planner

Search our weather history database for the weather conditions in past years. The results will help you decide how hot, cold, wet, or windy it might be!

Date:

Astronomy

Aug. 19, 2013 Rise Set
Actual Time 5:14 AM EET 6:17 PM EET
Civil Twilight 4:50 AM EET 6:41 PM EET
Nautical Twilight 4:21 AM EET 7:10 PM EET
Astronomical Twilight 3:51 AM EET 7:39 PM EET
Moon 4:51 PM EET (8/19) 3:14 AM EET (8/19)
Length of Visible Light 13h 51m
Length of Day
13h 02m
Waxing Gibbous, 96% of the Moon is Illuminated
Aug 19
Waxing Gibbous
Aug 21
Full
Aug 28
Last Quarter
Sep 5
New
Sep 12
First Quarter

Hourly Weather History & Observations

Time (EET) Temp. Heat Index Dew Point Humidity Pressure Visibility Wind Dir Wind Speed Gust Speed Precip Events Conditions
12:00 AM 89.6 °F 88.1 °F 57.2 °F 33% 29.62 in - North 8.1 mph - N/A   Clear
1:00 AM 87.8 °F 87.1 °F 59.0 °F 38% 29.59 in - North 15.0 mph - N/A   Clear
2:00 AM 86.0 °F 86.1 °F 60.8 °F 43% 29.59 in - North 11.5 mph - N/A   Clear
3:00 AM 86.0 °F 86.6 °F 62.6 °F 45% 29.59 in - North 12.7 mph - N/A   Clear
4:00 AM 84.2 °F 85.6 °F 64.4 °F 51% 29.62 in - North 12.7 mph - N/A   Clear
5:00 AM 84.2 °F 85.0 °F 62.6 °F 48% 29.62 in - North 10.4 mph - N/A   Clear
6:00 AM 84.2 °F 85.6 °F 64.4 °F 51% 29.62 in - North 9.2 mph - N/A   Clear
7:00 AM 87.8 °F 88.5 °F 62.6 °F 43% 29.62 in - North 12.7 mph - N/A   Clear
8:00 AM 91.4 °F 91.4 °F 60.8 °F 36% 29.65 in - North 15.0 mph - N/A   Clear
9:00 AM 91.4 °F 92.1 °F 62.6 °F 38% 29.65 in - NNE 13.8 mph - N/A   Clear
10:00 AM 93.2 °F 94.1 °F 62.6 °F 36% 29.65 in - NNE 11.5 mph - N/A   Clear
11:00 AM 96.8 °F 98.0 °F 62.6 °F 32% 29.62 in - NNE 11.5 mph - N/A   Clear
12:00 PM 96.8 °F 96.2 °F 59.0 °F 28% 29.62 in - NNE 13.8 mph - N/A   Clear
1:00 PM 100.4 °F 100.2 °F 59.0 °F 25% 29.62 in - NNE 10.4 mph - N/A   Clear
2:00 PM 104.0 °F 102.9 °F 55.4 °F 20% 29.59 in - NNE 10.4 mph - N/A   Clear
3:00 PM 102.2 °F 114.4 °F 73.4 °F 40% 29.56 in - NNE 12.7 mph - N/A   Clear
4:00 PM 102.2 °F 100.4 °F 53.6 °F 20% 29.56 in - North 12.7 mph - N/A   Clear
5:00 PM 100.4 °F - 51.8 °F 20% 29.56 in - North 11.5 mph - N/A   Clear
6:00 PM 98.6 °F - 50.0 °F 19% 29.56 in - North 10.4 mph - N/A   Clear
7:00 PM 95.0 °F - 51.8 °F 23% 29.59 in - Variable 3.5 mph - N/A   Clear
8:00 PM 91.4 °F 89.4 °F 55.4 °F 29% 29.59 in - North 5.8 mph - N/A   Clear
9:00 PM 91.4 °F 90.7 °F 59.0 °F 34% 29.62 in - NNE 5.8 mph - N/A   Clear
10:00 PM 91.4 °F 89.1 °F 53.6 °F 28% 29.62 in - North 6.9 mph - N/A   Clear
11:00 PM 91.4 °F 89.1 °F 53.6 °F 28% 29.62 in - NNW 4.6 mph - N/A   Clear